Regional Weather Roundup
Issued by NWS Jackson, KY

Home | Current Version | Previous Version | Text Only | Print | Product List | Glossary Off
Versions: 1 2 3 4 5 6 7 8 9 10 11 12 13 14 15 16 17 18 19 20 21 22 23 24 25 26 27 28 29 30 31 32 33 34 35 36 37 38 39 40 41 42 43 44 45 46 47 48 49 50

000
ASUS43 KJKL 142211
RWRJKL

EAST KENTUCKY HOURLY WEATHER ROUNDUP
NATIONAL WEATHER SERVICE JACKSON KY
600 PM EDT SUN SEP 14 2014

NOTE: "FAIR" INDICATES FEW OR NO CLOUDS BELOW 12,000 FEET WITH
NO SIGNIFICANT WEATHER AND/OR OBSTRUCTIONS TO VISIBILITY.

* THESE REPORTS ARE NOT UNDER NWS QUALITY CONTROL AND MAY NOT
  REPORT WEATHER SUCH AS PRECIPITATION AND FOG.

KYZ079-080-083-085-087-088-110-112-115-119-120-142300
...EASTERN KENTUCKY...

CITY           SKY/WX    TMP DP  RH WIND       PRES   REMARKS
JACKSON        SUNNY     69  53  56 CALM      30.21S
LONDON         SUNNY     73  55  53 CALM      30.20F
MONTICELLO*    SUNNY     76  58  53 VRB3      30.20F
WILLIAMSBURG*  SUNNY     73  61  64 NW3       30.19
MIDDLESBORO*   PTSUNNY   73  64  72 N5        30.19R
HARLAN APT*    PTCLDY    70  59  68 MISG      30.20S
HAZARD APT*    PTCLDY    70  55  60 CALM      30.21S
BLACK MTN*       N/A     59  59 100 NE1         N/A
PIKEVILLE APT* CLOUDY    66  57  72 SE3       30.21F
BIG SANDY*     CLEAR     65  56  71 N3        30.21F
MOREHEAD APT*  CLEAR     70  48  46 CALM      30.23S
$$

KYZ035-036-041-042-044-050-067-078-099-142300
...CENTRAL KENTUCKY...

CITY           SKY/WX    TMP DP  RH WIND       PRES   REMARKS
MT STERLING*   SUNNY     70  50  49 CALM      30.22S
FLEMING/MASON* SUNNY     68  46  45 CALM      30.22S
DANVILLE*      SUNNY     70  48  46 CALM      30.21F
RICHMOND*      SUNNY     72  50  46 CALM      30.20S
LEXINGTON      SUNNY     72  50  45 N8        30.21S
FRANKFORT      SUNNY     72  46  39 CALM      30.20S
$$

KYZ091>093-OHZ055-061-077-WVZ005-015-034-035-042-142300
...SOUTHERN OHIO/WEST VIRGINIA...

CITY           SKY/WX    TMP DP  RH WIND       PRES   REMARKS
COVINGTON      SUNNY     70  46  42 CALM      30.21S
COLUMBUS       MOSUNNY   68  43  40 S6        30.21F
DAYTON         MOSUNNY   69  46  43 NE3       30.22F
WILMINGTON     SUNNY     68  44  42 SW3       30.21F
HUNTINGTON     SUNNY     68  51  54 CALM      30.20F
CHARLESTON     MOSUNNY   66  55  67 CALM      30.21S
PINEVILLE*     CLOUDY    65  63  93 MISG      30.27F FOG
BECKLEY        CLOUDY    61  55  81 S6        30.24S
BLUEFIELD      CLOUDY    63  55  75 S3        30.26S
$$

VAZ002-007-008-TNZ017-027-036-066-071-142300
...SOUTHWEST VIRGINIA/EAST TENNESSEE...

CITY           SKY/WX    TMP DP  RH WIND       PRES   REMARKS
WISE*          CLOUDY    64  63  94 N7        30.25S
JONESVILLE*    CLOUDY    72  64  78 CALM      30.21S
ABINGDON*      CLOUDY    65  62  88 CALM      30.23F
BRISTOL        CLOUDY    70  63  78 CALM      30.20F
KNOXVILLE      CLOUDY    75  64  68 CALM      30.16S
OAK RIDGE      MOSUNNY   76  64  66 VRB3      30.18S
CROSSVILLE     MOSUNNY   74  60  61 NW7       30.21R
NASHVILLE      MOSUNNY   79  56  45 N5        30.17F
$$

...KEY TO REMARKS...
VSB - VISIBILITY IN MILES
WCI - WIND CHILL INDEX
HX  - HEAT INDEX

$$


USA.gov is the U.S. government's official web portal to all federal, state and local government web resources and services.